Regional Weather Roundup
Issued by NWS

Home | Current Version | Previous Version | Text Only | Print | Product List | Glossary On
Versions: 1 2 3 4 5 6 7 8 9 10 11 12 13 14 15 16 17 18 19 20 21 22 23 24 25 26 27 28 29 30 31 32 33 34 35 36 37 38 39 40 41 42 43 44 45 46 47 48 49 50
000
ASUS43 KLSX 221707
RWRMO

WEATHER SUMMARY FOR MISSOURI
NATIONAL WEATHER SERVICE SPRINGFIELD MO
1200 PM CDT FRI AUG 22 2014

NOTE: "FAIR" INDICATES FEW OR NO CLOUDS BELOW 12,000 FEET WITH NO
       SIGNIFICANT WEATHER AND/OR OBSTRUCTIONS TO VISIBILITY.
       CURRENT SKY AND/OR WEATHER CONDITIONS ARE NOT AVAILABLE FOR
       CHILLICOTHE AND FARMINGTON.

MOZ001>031-035>038-043-044-053-054-221800-
...NORTHERN AND WESTERN MISSOURI...

CITY           SKY/WX    TMP DP  RH WIND       PRES   REMARKS
KANSAS CTY INT CLOUDY    83  74  74 S6        29.95S
KANSAS C DTWN  PTSUNNY   88  72  58 W5        29.94S HX  94
LEE`S SUMMIT   SUNNY     86  71  60 SW3       29.97S HX  91
ST JOSEPH      CLOUDY    77  75  93 S6        29.92F
CHILLICOTHE      N/A     83  75  77 S7        29.96S HX  90
KIRKSVILLE     PTSUNNY   83  75  77 VRB5      29.98S HX  90

$$
MOZ066>068-077>081-088>096-101>105-221800-
...SOUTHWEST MISSOURI...

CITY           SKY/WX    TMP DP  RH WIND       PRES   REMARKS
SPRINGFIELD    SUNNY     92  68  45 S14G21    30.03S HX  96
JOPLIN         MOSUNNY   92  70  48 S16       30.00F HX  97

$$
MOZ032>034-039>042-045>050-055>058-069>072-221800-
...CENTRAL MISSOURI...

CITY           SKY/WX    TMP DP  RH WIND       PRES   REMARKS
COLUMBIA       MOSUNNY   87  74  64 VRB6      30.00S HX  95
JEFFERSON CITY MOSUNNY   89  71  55 SW6       29.98S HX  95
ROLLA          MOSUNNY   89  71  55 S7        30.02R HX  95
SEDALIA        MOSUNNY   89  73  59 W7        29.99S HX  97
WHITEMAN AFB   MOSUNNY   87  68  53 SW6       29.97F HX  90
OSAGE BEACH    MOSUNNY   90  72  55 SW9       29.99F HX  96

$$
MOZ051-052-059>065-221800-
...EAST CENTRAL MISSOURI...

CITY           SKY/WX    TMP DP  RH WIND       PRES   REMARKS
ST LOUIS INTL  PTSUNNY   90  73  57 VRB3      30.02R HX  98
SPIRIT OF STL  PTSUNNY   87  72  60 CALM      30.00S HX  93
ST CHARLES     PTSUNNY   86  73  65 VRB3      30.00S HX  93

$$
MOZ072>076-082>087-097>100-106>115-221800-
...SOUTH CENTRAL AND SOUTHEAST MISSOURI...

CITY           SKY/WX    TMP DP  RH WIND       PRES   REMARKS
CAPE GIRARDEAU PTSUNNY   88  77  69 SW5       30.04S HX 100
FARMINGTON     MOSUNNY   90  72  55 S5        30.07R HX  96
POPLAR BLUFF   MOSUNNY   89  74  60 SW9       30.02F HX  98
WEST PLAINS    SUNNY     89  71  55 SW10      30.08S HX  95

$$



USA.gov is the U.S. government's official web portal to all federal, state and local government web resources and services.